Regional Weather Roundup
Issued by NWS Albany, NY

Home | Current Version | Previous Version | Text Only | Print | Product List | Glossary On
Versions: 1 2 3 4 5 6 7 8 9 10 11 12 13 14 15 16 17 18 19 20 21 22 23 24 25 26 27 28 29 30 31 32 33 34 35 36 37 38 39 40 41 42 43 44 45 46 47 48 49 50
000
ASUS41 KALY 211310
RWRALY

NEW YORK STATE HOURLY WEATHER ROUNDUP
NATIONAL WEATHER SERVICE ALBANY NY
900 AM EDT TUE OCT 21 2014

NOTE: "FAIR" INDICATES FEW OR NO CLOUDS BELOW 12,000 FEET WITH NO
SIGNIFICANT WEATHER AND/OR NO OBSTRUCTIONS TO VISIBILITY.

NYZ032-033-038>043-046>054-057>066-NYZ062>081-211400-
EAST


CITY           SKY/WX    TMP DP  RH WIND       PRES   REMARKS
ALBANY         LGT RAIN  50  47  89 N3        29.92R FOG
GLENS FALLS    CLOUDY    47  44  90 NE3       29.93R
POUGHKEEPSIE   CLOUDY    51  47  86 CALM      29.91R
NEWBURGH       CLOUDY    50  48  93 VRB5      29.91R
MONTGOMERY     CLOUDY    48  45  89 N3        29.90R
WHITE PLAINS   MOSUNNY   53  48  83 E3        29.90S
ISLIP          PTSUNNY   56  50  80 E3        29.90S
NEW YORK CITY  PTSUNNY   59  46  62 SE6       29.90S
CENTRAL PARK   MOSUNNY   58  46  64 E5        29.92S
$$

NYZ005>009-017-018-044>046-055-056-211400-
CENTRAL


CITY           SKY/WX    TMP DP  RH WIND       PRES   REMARKS
FULTON         CLOUDY    49  46  90 E7        29.85R
SYRACUSE       NOT AVBL
ROME           LGT RAIN  48  46  93 E5        29.89R
ELMIRA         CLOUDY    48  47  96 CALM      29.84R
BINGHAMTON     CLOUDY    49  44  83 S6        29.84R
MONTICELLO     CLOUDY    45  43  93 E9        29.90F
$$

NYZ026>034-041>043-211400-
NORTH


CITY           SKY/WX    TMP DP  RH WIND       PRES   REMARKS
WATERTOWN      CLOUDY    51  43  74 E5        29.86R
FORT DRUM      NOT AVBL
MASSENA        CLOUDY    45  42  89 E12       29.96R
SARANAC LAKE   LGT RAIN  41  40  96 NE8       29.90R
PLATTSBURGH    LGT RAIN  45  44  97 NW5       29.97R FOG
$$

NYZ001>004-010>016-019>021-211400-
WEST


CITY           SKY/WX    TMP DP  RH WIND       PRES   REMARKS
NIAGARA FALLS  CLOUDY    50  48  93 NW6       29.83S FOG
BUFFALO        CLOUDY    51  48  89 NW7       29.83R FOG
DUNKIRK        CLOUDY    52  47  83 NW7       29.84R
JAMESTOWN      CLOUDY    48  46  93 N3        29.84R
WELLSVILLE     CLOUDY    48  45  89 W6        29.84R
ROCHESTER      LGT RAIN  50  49  96 SW5       29.83R
PENN YAN       LGT RAIN  49  32  52 SW7       29.83R
$$

             KEY
       WCI = WIND CHILL INDEX
       VSB = VISIBILITY
       HX  = HEAT INDEX
$$


USA.gov is the U.S. government's official web portal to all federal, state and local government web resources and services.